[[{"header":{"parameterUnit":"m.s-1","parameterCategory":1,"la1":30.2991,"la2":30.254,"lo1":-89.0895,"lo2":-89.0444,"dy":0.0017,"dx":0.0017,"nx":28,"ny":28,"refTime":"2024-05-30T09:00:00:Z","depth":0,"parameterNumber":2,"parameterNumberName":"U-component_of_WINDS"},"data":[0,0,0,0,0,0,0,0,0,0,0,0,0,0,0,0,0,0,0,0,0,0,0,0,0,0,0,0,0,0,0,0,0,0,0,0,0,0,0,0,0,0,0,0,0,0,0,0,0,0,0,0,0,0,0,0,0,0,-3.4277,-3.4278,0,-3.433,-3.433,-3.4331,-3.431,-3.4308,-3.4307,-3.4306,-3.4356,-3.4358,-3.4361,0,0,0,0,0,0,0,0,0,0,0,0,0,-3.4154,-3.4157,-3.4277,-3.4278,-3.4279,-3.433,-3.433,-3.4331,-3.431,-3.4308,-3.4307,-3.4305,-3.4355,-3.4358,-3.4361,0,0,0,0,0,0,0,0,0,0,0,0,0,-3.4207,-3.4158,-3.4277,-3.4274,-3.4274,-3.433,-3.433,-3.4331,-3.431,-3.4308,-3.4306,-3.4305,-3.4354,-3.4358,-3.4361,-3.4421,0,0,-3.4373,-3.4374,0,0,0,0,0,0,0,0,-3.4204,-3.4212,-3.4274,-3.4275,-3.4275,-3.4311,-3.4305,-3.4361,-3.4311,-3.4297,-3.4306,-3.4304,-3.4342,-3.4347,-3.4361,-3.4424,-3.4426,-3.4373,-3.4375,-3.4377,-3.4378,0,0,0,0,0,0,0,-3.4201,-3.4209,-3.4298,-3.4275,-3.4275,-3.4269,-3.4274,-3.4316,-3.4329,-3.4298,-3.4296,-3.4303,-3.4342,-3.4357,-3.4362,-3.4426,-3.4373,-3.4376,-3.4379,-3.438,-3.4539,-3.4541,0,0,0,0,0,0,-3.4198,-3.4207,-3.4296,-3.4299,-3.4235,-3.4273,-3.4279,-3.4301,-3.4329,-3.4331,-3.4304,-3.4302,-3.4352,-3.4357,-3.4363,-3.4433,-3.4377,-3.438,-3.4382,-3.4537,-3.454,-3.4542,0,0,0,0,0,0,-3.4195,-3.4206,-3.4294,-3.4253,-3.4263,-3.4277,-3.4302,-3.4303,-3.4318,-3.4334,-3.4336,-3.4318,-3.435,-3.4358,-3.4407,-3.4435,-3.4382,-3.4385,-3.4535,-3.4538,-3.4541,-3.4575,0,0,0,0,0,0,-3.4192,-3.4205,-3.4229,-3.4253,-3.4266,-3.4338,-3.4304,-3.4306,-3.4325,-3.4322,-3.4346,-3.4349,-3.435,-3.4401,-3.4411,-3.4439,-3.4388,-3.4532,-3.4536,-3.454,-3.4571,-3.4579,-3.4585,0,0,0,0,0,-3.4187,-3.4236,-3.423,-3.4241,-3.4296,-3.434,-3.4346,-3.4348,-3.4328,-3.4351,-3.4361,-3.4348,-3.4431,-3.4407,-3.4417,-3.4447,-3.4531,-3.4535,-3.454,-3.4568,-3.4577,-3.4585,0,0,0,0,0,0,-3.4212,-3.4239,-3.4233,-3.4291,-3.4314,-3.4336,-3.4365,-3.4358,-3.4385,-3.4381,-3.438,-3.4386,-3.4436,-3.4446,-3.4419,-3.4505,-3.4478,-3.4484,-3.4496,-3.4505,-3.4512,-3.4507,-3.4391,0,0,0,0,0,-3.4225,-3.426,-3.4281,-3.433,-3.4342,-3.4352,-3.4371,-3.437,-3.4392,-3.4401,-3.4415,-3.4436,-3.4467,-3.4487,-3.4516,-3.4574,-3.4578,-3.46,-3.4606,-3.4612,-3.4617,-3.4646,-3.4656,-3.4557,-3.4557,-3.4557,0,0,-3.4251,-3.427,-3.4291,-3.4335,-3.4353,-3.4387,-3.436,-3.4397,-3.4422,-3.4407,-3.4453,-3.4464,-3.4488,-3.4541,-3.4565,-3.4551,-3.4646,-3.4618,-3.4622,-3.4624,-3.4652,-3.4661,-3.467,-3.456,-3.4559,-3.4559,0,0,-3.4315,-3.4334,-3.4376,-3.4394,-3.4421,-3.4427,-3.4438,-3.4462,-3.4468,-3.4516,-3.4505,-3.4534,-3.4587,-3.4604,-3.462,-3.4691,-3.4679,-3.47,-3.4735,-3.4764,-3.4772,-3.4779,-3.4802,-3.481,-3.4706,-3.4706,-3.4706,0,-3.4342,-3.4395,-3.4398,-3.4437,-3.4455,-3.4445,-3.4487,-3.4504,-3.4539,-3.4551,-3.4536,-3.4603,-3.4618,-3.4674,-3.4691,-3.4705,-3.4715,-3.4696,-3.4771,-3.4778,-3.4784,-3.4806,-3.4815,-3.4708,-3.4708,-3.4708,-3.4707,0,-3.4427,-3.4463,-3.4494,-3.4529,-3.4552,-3.4592,-3.4599,-3.4622,-3.462,-3.4627,-3.4675,-3.4693,-3.4725,-3.4739,-3.4737,-3.4795,-3.4785,-3.4771,-3.4742,-3.4796,-3.4816,-3.4825,-3.4711,-3.4711,-3.471,-3.4709,0,0,-3.4506,-3.4543,-3.4554,-3.4569,-3.4598,-3.4626,-3.4665,-3.4698,-3.4716,-3.474,-3.4771,-3.4818,-3.4804,-3.4822,-3.4822,-3.4848,-3.49,-3.483,-3.483,-3.484,-3.4962,-3.4971,-3.498,-3.4894,-3.4896,-3.4897,-3.4959,0,-3.457,-3.4639,-3.4644,-3.4706,-3.4738,-3.473,-3.4763,-3.4784,-3.4793,-3.4821,-3.483,-3.4861,-3.4843,-3.4853,-3.4879,-3.4888,-3.4924,-3.4884,-3.492,-3.4922,-3.4912,-3.4991,-3.5001,-3.5059,-3.4967,-3.4969,-3.497,0,-3.4653,-3.4681,-3.4747,-3.4771,-3.4785,-3.4816,-3.4845,-3.4873,-3.4896,-3.49,-3.4921,-3.4917,-3.4955,-3.4928,-3.498,-3.4953,-3.4968,-3.4975,-3.4977,-3.4978,-3.4947,-3.4992,-3.5078,-3.5085,-3.4983,-3.4982,-3.4981,0,-3.4701,-3.4756,-3.4802,-3.4815,-3.4845,-3.4866,-3.488,-3.4901,-3.492,-3.4946,-3.4958,-3.4989,-3.5004,-3.5027,-3.503,-3.5011,-3.5082,-3.5055,-3.5084,-3.5084,-3.5097,-3.5096,-3.5183,-3.5112,-3.5112,-3.5112,-3.5111,0,-3.4771,-3.481,-3.4823,-3.4851,-3.4895,-3.49,-3.4943,-3.4955,-3.4974,-3.5003,-3.4998,-3.5024,-3.5029,-3.5057,-3.506,-3.5101,-3.5109,-3.5112,-3.5112,-3.5111,-3.511,-3.5119,-3.5114,-3.5114,-3.5113,-3.5113,-3.5113,0,-3.483,-3.4841,-3.489,-3.4915,-3.4922,-3.4953,-3.4973,-3.4999,-3.5008,-3.5045,-3.5054,-3.5066,-3.5099,-3.5106,-3.5144,-3.5146,-3.5194,-3.5191,-3.5186,-3.5185,-3.5213,-3.5209,-3.5307,-3.5319,-3.5242,-3.5243,-3.5244,0,-3.4872,-3.4903,-3.4931,-3.4951,-3.4965,-3.4997,-3.5017,-3.5023,-3.5043,-3.5072,-3.5094,-3.5126,-3.5152,-3.5204,-3.5215,-3.5244,-3.524,-3.5273,-3.5244,-3.5242,-3.5238,-3.5235,-3.5237,-3.5277,-3.5278,-3.5279,-3.5279,0,-3.4945,-3.4949,-3.4979,-3.501,-3.5034,-3.5058,-3.5082,-3.5098,-3.5106,-3.513,-3.5163,-3.5183,-3.5223,-3.5254,-3.5283,-3.5295,-3.5288,-3.5289,-3.5296,-3.5294,-3.5289,-3.5289,-3.5198,-3.5285,-3.5285,-3.5284,-3.5284,-3.5284,-3.4996,-3.5022,-3.5046,-3.5078,-3.5097,-3.5119,-3.5144,-3.5157,-3.5185,-3.5218,-3.522,-3.5256,-3.5278,-3.5316,-3.533,-3.5357,-3.5347,-3.5359,-3.5361,-3.5363,-3.5365,-3.5287,-3.5363,-3.5363,-3.5363,-3.5362,-3.5362,0,-3.5066,-3.5081,-3.5112,-3.5145,-3.517,-3.5164,-3.5189,-3.521,-3.5242,-3.5264,-3.529,-3.5328,-3.5358,-3.5373,-3.5402,-3.5421,-3.5418,-3.5428,-3.5425,-3.5428,-3.5374,-3.5363,-3.543,-3.543,-3.543,-3.543,-3.543,-3.543,-3.5105,-3.5149,-3.5156,-3.5208,-3.5223,-3.5259,-3.5273,-3.5293,-3.531,-3.5353,-3.5379,-3.5389,-3.5407,-3.5438,-3.5465,-3.5468,-3.5478,-3.5489,-3.5491,-3.5439,-3.5432,-3.5425,-3.5415,-3.5492,-3.5492,-3.5543,-3.5543,-3.5543]},{"header":{"parameterUnit":"m.s-1","parameterCategory":1,"la1":30.2991,"la2":30.254,"lo1":-89.0895,"lo2":-89.0444,"dy":0.0017,"dx":0.0017,"nx":28,"ny":28,"refTime":"2024-05-30T09:00:00:Z","depth":0,"parameterNumber":3,"parameterNumberName":"V-component_of_WINDS"},"data":[0,0,0,0,0,0,0,0,0,0,0,0,0,0,0,0,0,0,0,0,0,0,0,0,0,0,0,0,0,0,0,0,0,0,0,0,0,0,0,0,0,0,0,0,0,0,0,0,0,0,0,0,0,0,0,0,0,0,3.1459,3.1459,0,3.1478,3.1478,3.1479,3.1405,3.1403,3.1401,3.1399,3.1416,3.1418,3.142,0,0,0,0,0,0,0,0,0,0,0,0,0,3.1354,3.1357,3.1459,3.1459,3.1459,3.1478,3.1478,3.1479,3.1405,3.1403,3.14,3.1398,3.1415,3.1418,3.1421,0,0,0,0,0,0,0,0,0,0,0,0,0,3.1389,3.1358,3.1459,3.1425,3.1422,3.1478,3.1478,3.1479,3.1406,3.1403,3.1399,3.1396,3.1414,3.1417,3.1421,3.1509,0,0,3.1432,3.1434,0,0,0,0,0,0,0,0,3.1388,3.1393,3.143,3.1427,3.1424,3.1436,3.1448,3.1489,3.1407,3.1412,3.1399,3.1395,3.1425,3.1427,3.1438,3.151,3.1511,3.1433,3.1435,3.1437,3.1438,0,0,0,0,0,0,0,3.1385,3.1392,3.1466,3.143,3.1427,3.1408,3.1409,3.1455,3.1436,3.1411,3.1406,3.141,3.1423,3.1435,3.1438,3.1511,3.1433,3.1436,3.1438,3.144,3.1656,3.1659,0,0,0,0,0,0,3.1388,3.1391,3.1466,3.1467,3.1398,3.1412,3.1414,3.1435,3.1436,3.1433,3.1412,3.1406,3.143,3.1434,3.1438,3.154,3.1437,3.144,3.1442,3.1652,3.1656,3.166,0,0,0,0,0,0,3.1386,3.1395,3.1465,3.1427,3.1435,3.1418,3.1442,3.1438,3.1449,3.1436,3.1432,3.1428,3.1428,3.1433,3.1492,3.154,3.1442,3.1445,3.1648,3.1653,3.1658,3.1747,0,0,0,0,0,0,3.1383,3.1395,3.1429,3.1429,3.1437,3.152,3.1445,3.144,3.1456,3.1448,3.145,3.1448,3.1425,3.1487,3.1496,3.1543,3.1448,3.1644,3.165,3.1657,3.1739,3.1754,3.1767,0,0,0,0,0,3.138,3.1453,3.1431,3.144,3.148,3.1523,3.1527,3.1501,3.1461,3.1494,3.1486,3.1447,3.1534,3.1494,3.1503,3.1552,3.164,3.1648,3.1656,3.1733,3.1751,3.1767,0,0,0,0,0,0,3.1457,3.1452,3.1428,3.1503,3.1514,3.151,3.1551,3.1521,3.1543,3.1534,3.15,3.1501,3.1566,3.1565,3.1521,3.1638,3.158,3.159,3.1635,3.1653,3.1666,3.1664,3.1451,0,0,0,0,0,3.1484,3.152,3.1513,3.158,3.1587,3.1569,3.1586,3.1566,3.1575,3.1579,3.1575,3.1584,3.1613,3.1633,3.1659,3.174,3.1738,3.1778,3.1792,3.1804,3.1812,3.1853,3.187,3.1686,3.1686,3.1686,0,0,3.1537,3.1539,3.1564,3.1596,3.1602,3.1639,3.1573,3.1615,3.1642,3.1585,3.164,3.1638,3.1646,3.1716,3.1747,3.1717,3.1863,3.1814,3.1823,3.1825,3.1863,3.188,3.1896,3.1691,3.169,3.169,0,0,3.1654,3.166,3.1716,3.1724,3.1734,3.1721,3.1735,3.1736,3.1732,3.1788,3.1746,3.1777,3.1828,3.1836,3.1846,3.1967,3.1932,3.1977,3.2048,3.2089,3.2103,3.2116,3.2157,3.2173,3.1986,3.1986,3.1986,0,3.1719,3.1775,3.1748,3.1794,3.1808,3.176,3.1815,3.1824,3.1842,3.1852,3.182,3.1883,3.1886,3.1956,3.1986,3.1997,3.201,3.1975,3.2104,3.2116,3.2127,3.2167,3.2182,3.1991,3.1991,3.199,3.199,0,3.1854,3.1893,3.1937,3.1957,3.1976,3.2027,3.2006,3.203,3.2008,3.1998,3.2055,3.2057,3.2082,3.2098,3.2076,3.2165,3.2146,3.211,3.2051,3.2151,3.2187,3.2202,3.1999,3.1997,3.1995,3.1994,0,0,3.2018,3.2023,3.204,3.2048,3.2056,3.2085,3.2133,3.2159,3.2179,3.2194,3.2232,3.2277,3.2243,3.2255,3.2234,3.227,3.2364,3.2229,3.2228,3.2252,3.246,3.2486,3.2504,3.2342,3.2345,3.2347,3.2459,0,3.2131,3.2214,3.2192,3.2274,3.2309,3.2264,3.2305,3.2315,3.2308,3.2336,3.2327,3.2359,3.2313,3.232,3.2354,3.2346,3.2405,3.2338,3.2375,3.2377,3.2372,3.2523,3.2551,3.2656,3.2473,3.2475,3.2477,0,3.2274,3.2295,3.2381,3.2383,3.2397,3.2435,3.2457,3.2485,3.2494,3.2486,3.2501,3.2473,3.2519,3.2462,3.2524,3.2478,3.2493,3.2491,3.2495,3.2495,3.2432,3.2526,3.2689,3.2704,3.2499,3.2498,3.2496,0,3.2383,3.2433,3.249,3.2499,3.2504,3.2531,3.2534,3.254,3.2557,3.2576,3.2587,3.2611,3.2623,3.2642,3.2621,3.2582,3.2686,3.2627,3.2679,3.268,3.2701,3.27,3.2867,3.2715,3.2714,3.2714,3.2714,0,3.251,3.2564,3.2539,3.2574,3.2633,3.2607,3.2666,3.2663,3.267,3.2703,3.2666,3.2697,3.2669,3.2697,3.2681,3.2734,3.2741,3.2735,3.2729,3.2737,3.2737,3.2744,3.2735,3.2718,3.2717,3.2716,3.2716,0,3.2641,3.2627,3.2686,3.2686,3.2688,3.2731,3.273,3.2762,3.2753,3.2796,3.2804,3.2789,3.2822,3.2803,3.2836,3.2825,3.2893,3.2879,3.289,3.2886,3.2938,3.2933,3.3114,3.3135,3.2971,3.2973,3.2974,0,3.2722,3.2762,3.2767,3.2787,3.2793,3.2826,3.2843,3.282,3.2839,3.2853,3.2883,3.2912,3.2934,3.2987,3.2979,3.3004,3.2988,3.305,3.2991,3.2998,3.2987,3.2984,3.2987,3.3061,3.3063,3.3065,3.3066,0,3.2867,3.2858,3.2885,3.291,3.2932,3.295,3.2965,3.2984,3.296,3.2983,3.3016,3.3034,3.3067,3.3096,3.3118,3.3119,3.3088,3.3085,3.3098,3.3105,3.3109,3.3105,3.292,3.308,3.3079,3.3078,3.3077,3.3076,3.2973,3.3007,3.3016,3.3047,3.3056,3.3071,3.3101,3.3097,3.3124,3.315,3.3134,3.3173,3.3181,3.3206,3.3212,3.3241,3.3216,3.3235,3.324,3.3244,3.325,3.3107,3.3245,3.3245,3.3244,3.3244,3.3244,0,3.3115,3.3119,3.3148,3.317,3.3195,3.3166,3.3181,3.3203,3.3237,3.3248,3.3271,3.3308,3.3336,3.3331,3.3356,3.338,3.3367,3.3388,3.3384,3.3385,3.3272,3.3258,3.3398,3.3398,3.3398,3.3398,3.3398,3.3398,3.3191,3.3246,3.3238,3.3297,3.33,3.3338,3.3349,3.3363,3.3371,3.3415,3.3438,3.3435,3.3439,3.3464,3.3489,3.3486,3.3496,3.3522,3.3514,3.3409,3.3393,3.3378,3.3364,3.3525,3.3525,3.3624,3.3625,3.3626]}]]